This is the latest recevied weather packets stored in our database for station/object VK3BKO-13. If no packets are shown the sender has not sent any weather packets the latest 10 day(s).
| Time | Temp. | Humidity | Pressure | Rain* | Wind** | Luminosity | Snow |
|---|---|---|---|---|---|---|---|
| 1777689124 | 23.33° C | 48% | 1017 hPa | 0 mm | - | 228 W/m² | - |
| 1777688224 | 22.78° C | 50% | 1017 hPa | 0 mm | - | 244 W/m² | - |
| 1777687324 | 22.78° C | 49% | 1017.3 hPa | 0 mm | - | 203 W/m² | - |
| 1777686424 | 22.22° C | 50% | 1017.6 hPa | 0 mm | - | 187 W/m² | - |
| 1777685524 | 22.22° C | 49% | 1017.6 hPa | 0 mm | - | 154 W/m² | - |
| 1777684624 | 22.22° C | 49% | 1018 hPa | 0 mm | - | 177 W/m² | - |
| 1777683724 | 22.22° C | 49% | 1018.3 hPa | 0 mm | - | 125 W/m² | - |
| 1777682824 | 22.22° C | 48% | 1018.3 hPa | 0 mm | - | 183 W/m² | - |
| 1777681924 | 22.22° C | 49% | 1018.7 hPa | 0 mm | - | 141 W/m² | - |
| 1777681024 | 22.22° C | 49% | 1018.7 hPa | 0 mm | - | 108 W/m² | - |
| 1777680124 | 21.67° C | 50% | 1018.7 hPa | 0 mm | - | 130 W/m² | - |
| 1777679224 | 21.67° C | 51% | 1019 hPa | 0 mm | - | 134 W/m² | - |
| 1777678324 | 21.11° C | 52% | 1018.7 hPa | 0 mm | - | 129 W/m² | - |
| 1777677424 | 21.11° C | 52% | 1018.7 hPa | 0 mm | - | 94 W/m² | - |
| 1777676524 | 21.11° C | 51% | 1019 hPa | 0 mm | - | 84 W/m² | - |
| 1777675624 | 21.11° C | 51% | 1019 hPa | 0 mm | - | 117 W/m² | - |
| 1777674724 | 21.11° C | 51% | 1019 hPa | 0 mm | - | 87 W/m² | - |
| 1777673824 | 20.56° C | 52% | 1018.7 hPa | 0 mm | - | 64 W/m² | - |
| 1777672925 | 20.56° C | 52% | 1018.7 hPa | 0 mm | - | 48 W/m² | - |
| 1777672024 | 20° C | 52% | 1018.7 hPa | 0 mm | - | 37 W/m² | - |
| 1777671124 | 20° C | 53% | 1018.3 hPa | 0 mm | - | 16 W/m² | - |
| 1777670224 | 19.44° C | 54% | 1018.3 hPa | 0 mm | - | 10 W/m² | - |
| 1777669324 | 18.89° C | 55% | 1018.3 hPa | 0 mm | - | 2 W/m² | - |
| 1777668423 | 18.89° C | 56% | 1018.3 hPa | 0 mm | - | 0 W/m² | - |
| 1777667523 | 16.67° C | 64% | 1018.3 hPa | 0 mm | - | 0 W/m² | - |
* Rain latest hour (hover to see other rain measurements)
** Current wind speed in m/s (hover to see current wind gust speed)